| time (UTC) | temp C | wind direction | speed KPH | gust KPH | rain 1hr cm | rain 24hr cm | rain mn cm | humidity % | barometer mb |
| 20260506154815 | 25 | 90 | 20.9 | 0.0 | 0.00 | 0.00 | 0.00 | 36 | 1013.0 |
| 20260506153314 | 25 | 90 | 20.9 | 0.0 | 0.00 | 0.00 | 0.00 | 36 | 1013.0 |
| 20260506151814 | 25 | 100 | 16.1 | 0.0 | 0.00 | 0.00 | 0.00 | 36 | 1013.0 |
| 20260506150320 | 25 | 100 | 16.1 | 0.0 | 0.00 | 0.00 | 0.00 | 36 | 1013.0 |
| 20260506144814 | 26 | 120 | 12.9 | 0.0 | 0.00 | 0.00 | 0.00 | 34 | 1013.0 |
| 20260506143326 | 26 | 120 | 12.9 | 0.0 | 0.00 | 0.00 | 0.00 | 34 | 1013.0 |
| 20260506141814 | 26 | 100 | 12.9 | 0.0 | 0.00 | 0.00 | 0.00 | 34 | 1013.0 |
| 20260506140429 | 26 | 100 | 12.9 | 0.0 | 0.00 | 0.00 | 0.00 | 34 | 1013.0 |
| 20260506134839 | 25 | 130 | 12.9 | 0.0 | 0.00 | 0.00 | 0.00 | 36 | 1014.0 |
| 20260506133314 | 25 | 130 | 12.9 | 0.0 | 0.00 | 0.00 | 0.00 | 36 | 1014.0 |
| 20260506131814 | 26 | 130 | 12.9 | 0.0 | 0.00 | 0.00 | 0.00 | 34 | 1014.0 |
| 20260506130323 | 26 | 130 | 12.9 | 0.0 | 0.00 | 0.00 | 0.00 | 34 | 1014.0 |
| 20260506124814 | 26 | 80 | 11.3 | 0.0 | 0.00 | 0.00 | 0.00 | 34 | 1014.0 |
| 20260506123314 | 26 | 80 | 11.3 | 0.0 | 0.00 | 0.00 | 0.00 | 34 | 1014.0 |
| 20260506121814 | 25 | 11.3 | 0.0 | 0.00 | 0.00 | 0.00 | 39 | 1014.0 | |
| 20260506120314 | 25 | 11.3 | 0.0 | 0.00 | 0.00 | 0.00 | 39 | 1014.0 | |
| 20260506114814 | 25 | 120 | 12.9 | 0.0 | 0.00 | 0.00 | 0.00 | 39 | 1014.0 |
| 20260506113314 | 25 | 120 | 12.9 | 0.0 | 0.00 | 0.00 | 0.00 | 39 | 1014.0 |
| 20260506111814 | 25 | 120 | 14.5 | 0.0 | 0.00 | 0.00 | 0.00 | 39 | 1015.0 |
| 20260506110314 | 25 | 120 | 14.5 | 0.0 | 0.00 | 0.00 | 0.00 | 39 | 1015.0 |
| 20260506104814 | 23 | 110 | 14.5 | 0.0 | 0.00 | 0.00 | 0.00 | 39 | 1015.0 |
| 20260506103314 | 23 | 110 | 14.5 | 0.0 | 0.00 | 0.00 | 0.00 | 39 | 1015.0 |
| 20260506101814 | 23 | 11.3 | 0.0 | 0.00 | 0.00 | 0.00 | 36 | 1015.0 | |
| 20260506100314 | 23 | 11.3 | 0.0 | 0.00 | 0.00 | 0.00 | 36 | 1015.0 | |
| 20260506094814 | 23 | 120 | 9.7 | 0.0 | 0.00 | 0.00 | 0.00 | 36 | 1015.0 |
| 20260506093314 | 23 | 120 | 9.7 | 0.0 | 0.00 | 0.00 | 0.00 | 36 | 1015.0 |
| 20260506091814 | 23 | 90 | 9.7 | 0.0 | 0.00 | 0.00 | 0.00 | 39 | 1015.0 |
| 20260506090314 | 23 | 90 | 9.7 | 0.0 | 0.00 | 0.00 | 0.00 | 39 | 1015.0 |
| 20260506084814 | 22 | 130 | 12.9 | 0.0 | 0.00 | 0.00 | 0.00 | 38 | 1015.0 |
| 20260506083314 | 22 | 130 | 12.9 | 0.0 | 0.00 | 0.00 | 0.00 | 38 | 1015.0 |
| 20260506081810 | 22 | 90 | 11.3 | 0.0 | 0.00 | 0.00 | 0.00 | 44 | 1015.0 |
| 20260506080314 | 22 | 90 | 11.3 | 0.0 | 0.00 | 0.00 | 0.00 | 44 | 1015.0 |
| 20260506073314 | 20 | 90 | 9.7 | 0.0 | 0.00 | 0.00 | 0.00 | 53 | 1015.0 |
| 20260506071814 | 17 | 90 | 8.0 | 0.0 | 0.00 | 0.00 | 0.00 | 52 | 1015.0 |
| 20260506070314 | 17 | 90 | 8.0 | 0.0 | 0.00 | 0.00 | 0.00 | 52 | 1015.0 |
| 20260506061814 | 16 | 90 | 4.8 | 0.0 | 0.00 | 0.00 | 0.00 | 59 | 1015.0 |
| 20260506060315 | 16 | 90 | 4.8 | 0.0 | 0.00 | 0.00 | 0.00 | 59 | 1015.0 |
| 20260506050328 | 11 | 20 | 4.8 | 0.0 | 0.00 | 0.00 | 0.00 | 77 | 1015.0 |
| 20260506044829 | 11 | 0 | 0.0 | 0.0 | 0.00 | 0.00 | 0.00 | 77 | 1015.0 |
| 20260506043318 | 11 | 0 | 0.0 | 0.0 | 0.00 | 0.00 | 0.00 | 77 | 1015.0 |
| 20260506041815 | 8 | 40 | 4.8 | 0.0 | 0.00 | 0.00 | 0.00 | 87 | 1015.0 |
| 20260506040314 | 8 | 40 | 4.8 | 0.0 | 0.00 | 0.00 | 0.00 | 87 | 1015.0 |
| 20260506034814 | 8 | 30 | 8.0 | 0.0 | 0.00 | 0.00 | 0.00 | 82 | 1014.0 |
| 20260506033314 | 8 | 30 | 8.0 | 0.0 | 0.00 | 0.00 | 0.00 | 82 | 1014.0 |
| 20260506031814 | 8 | 10 | 4.8 | 0.0 | 0.00 | 0.00 | 0.00 | 87 | 1014.0 |
| 20260506030313 | 8 | 10 | 4.8 | 0.0 | 0.00 | 0.00 | 0.00 | 87 | 1014.0 |
| 20260506024814 | 8 | 60 | 8.0 | 0.0 | 0.00 | 0.00 | 0.00 | 87 | 1014.0 |
| 20260506023314 | 8 | 60 | 8.0 | 0.0 | 0.00 | 0.00 | 0.00 | 87 | 1014.0 |
| 20260506021814 | 8 | 60 | 4.8 | 0.0 | 0.00 | 0.00 | 0.00 | 87 | 1014.0 |
| 20260506020314 | 8 | 60 | 4.8 | 0.0 | 0.00 | 0.00 | 0.00 | 87 | 1014.0 |
| 20260506014814 | 10 | 50 | 9.7 | 0.0 | 0.00 | 0.00 | 0.00 | 88 | 1014.0 |
| 20260506013314 | 10 | 50 | 9.7 | 0.0 | 0.00 | 0.00 | 0.00 | 88 | 1014.0 |
| 20260506011814 | 10 | 70 | 11.3 | 0.0 | 0.00 | 0.00 | 0.00 | 88 | 1014.0 |
| 20260506010314 | 10 | 70 | 11.3 | 0.0 | 0.00 | 0.00 | 0.00 | 88 | 1014.0 |
| 20260506004814 | 11 | 3.2 | 0.0 | 0.00 | 0.00 | 0.00 | 88 | 1014.0 | |
| 20260506003430 | 11 | 3.2 | 0.0 | 0.00 | 0.00 | 0.00 | 88 | 1014.0 | |
| 20260506001814 | 12 | 60 | 8.0 | 0.0 | 0.00 | 0.00 | 0.00 | 82 | 1014.0 |
| 20260506000315 | 12 | 60 | 8.0 | 0.0 | 0.00 | 0.00 | 0.00 | 82 | 1014.0 |
| 20260505234814 | 12 | 50 | 9.7 | 0.0 | 0.00 | 0.00 | 0.00 | 77 | 1014.0 |
| 20260505233314 | 12 | 50 | 9.7 | 0.0 | 0.00 | 0.00 | 0.00 | 77 | 1014.0 |
| 20260505231814 | 12 | 30 | 8.0 | 0.0 | 0.00 | 0.00 | 0.00 | 77 | 1014.0 |
| 20260505230314 | 12 | 30 | 8.0 | 0.0 | 0.00 | 0.00 | 0.00 | 77 | 1014.0 |
| 20260505224814 | 13 | 40 | 3.2 | 0.0 | 0.00 | 0.00 | 0.00 | 77 | 1014.0 |
| 20260505223314 | 13 | 40 | 3.2 | 0.0 | 0.00 | 0.00 | 0.00 | 77 | 1014.0 |
| 20260505221811 | 13 | 60 | 1.6 | 0.0 | 0.00 | 0.00 | 0.00 | 72 | 1014.0 |
| 20260505220314 | 13 | 60 | 1.6 | 0.0 | 0.00 | 0.00 | 0.00 | 72 | 1014.0 |
| 20260505214815 | 13 | 1.6 | 0.0 | 0.00 | 0.00 | 0.00 | 72 | 1014.0 | |
| 20260505213314 | 13 | 1.6 | 0.0 | 0.00 | 0.00 | 0.00 | 72 | 1014.0 | |
| 20260505211814 | 15 | 50 | 3.2 | 0.0 | 0.00 | 0.00 | 0.00 | 68 | 1014.0 |
| 20260505210314 | 15 | 50 | 3.2 | 0.0 | 0.00 | 0.00 | 0.00 | 68 | 1014.0 |
| 20260505204816 | 15 | 3.2 | 0.0 | 0.00 | 0.00 | 0.00 | 72 | 1014.0 | |
| 20260505203313 | 15 | 3.2 | 0.0 | 0.00 | 0.00 | 0.00 | 72 | 1014.0 | |
| 20260505201845 | 17 | 70 | 4.8 | 0.0 | 0.00 | 0.00 | 0.00 | 56 | 1014.0 |
| 20260505200314 | 17 | 70 | 4.8 | 0.0 | 0.00 | 0.00 | 0.00 | 56 | 1014.0 |
| 20260505194814 | 16 | 80 | 4.8 | 0.0 | 0.00 | 0.00 | 0.00 | 59 | 1014.0 |
| 20260505193314 | 16 | 80 | 4.8 | 0.0 | 0.00 | 0.00 | 0.00 | 59 | 1014.0 |
| 20260505191814 | 17 | 110 | 4.8 | 0.0 | 0.00 | 0.00 | 0.00 | 59 | 1014.0 |
| 20260505190313 | 17 | 110 | 4.8 | 0.0 | 0.00 | 0.00 | 0.00 | 59 | 1014.0 |
| 20260505184815 | 17 | 120 | 4.8 | 0.0 | 0.00 | 0.00 | 0.00 | 59 | 1014.0 |
| 20260505183314 | 17 | 120 | 4.8 | 0.0 | 0.00 | 0.00 | 0.00 | 59 | 1014.0 |
| 20260505181814 | 20 | 90 | 4.8 | 0.0 | 0.00 | 0.00 | 0.00 | 53 | 1013.0 |
| 20260505180314 | 20 | 90 | 4.8 | 0.0 | 0.00 | 0.00 | 0.00 | 53 | 1013.0 |
| 20260505174811 | 21 | 1.6 | 0.0 | 0.00 | 0.00 | 0.00 | 46 | 1013.0 | |
| 20260505173314 | 21 | 1.6 | 0.0 | 0.00 | 0.00 | 0.00 | 46 | 1013.0 | |
| 20260505171814 | 21 | 230 | 8.0 | 0.0 | 0.00 | 0.00 | 0.00 | 50 | 1013.0 |
| 20260505170314 | 21 | 230 | 8.0 | 0.0 | 0.00 | 0.00 | 0.00 | 50 | 1013.0 |
| 20260505164814 | 22 | 250 | 4.8 | 0.0 | 0.00 | 0.00 | 0.00 | 47 | 1013.0 |
| 20260505163314 | 22 | 250 | 4.8 | 0.0 | 0.00 | 0.00 | 0.00 | 47 | 1013.0 |
| 20260505161814 | 22 | 240 | 4.8 | 0.0 | 0.00 | 0.00 | 0.00 | 47 | 1013.0 |
| 20260505160314 | 22 | 240 | 4.8 | 0.0 | 0.00 | 0.00 | 0.00 | 47 | 1013.0 |